Location: Belfast
(54.5830°N, 5.9330°W)
Time: 04:55:36
(UTC+01:00)

Coronas F rocket - Visible Passes

Search period start: 22 August 2014 00:00
Search period end: 01 September 2014 00:00
Orbit: 396 x 417 km, 82.5° (Epoch: 21 August)

Date Brightness Start Highest point End Pass type
(mag) Time Alt. Az. Time Alt. Az. Time Alt. Az.
22 Aug 2.9 22:38:17 10° SSW 22:41:23 43° WNW 22:44:29 10° N visible
23 Aug 1.8 21:49:16 10° S 21:52:27 59° E 21:55:37 10° NNE visible
23 Aug 4.9 23:24:37 10° W 23:26:17 13° WNW 23:27:57 10° NNW visible
24 Aug 3.6 22:34:06 10° SW 22:37:02 32° WNW 22:39:58 10° N visible
25 Aug 1.6 21:44:47 10° S 21:48:00 83° ESE 21:51:13 10° NNE visible
25 Aug 5.2 23:21:25 10° WNW 23:22:00 10° WNW 23:22:34 10° NW visible
26 Aug 4.2 22:29:57 10° SW 22:32:39 24° WNW 22:35:21 10° NNW visible
27 Aug 2.0 21:40:19 10° SSW 21:43:31 71° WNW 21:46:43 10° N visible
28 Aug 4.7 22:25:51 10° WSW 22:28:13 19° WNW 22:30:35 10° NNW visible
29 Aug 2.7 21:35:52 10° SSW 21:39:00 50° WNW 21:42:07 10° N visible
30 Aug 5.0 22:21:50 10° W 22:23:45 15° WNW 22:25:40 10° NNW visible
31 Aug 3.4 21:31:27 10° SW 21:34:26 37° WNW 21:37:26 10° N visible
